This demonstration page uses our WeatherBlox Daily Observations layout. Learn more.

Left ArrowRight Arrow

34.74481, -87.66753

Hourly Observations for October 20, 2021

Temp ( °F °C ) Dew Point ( °F °C ) Humidity (%) Winds ( mph kmh ) Pressure ( in mb ) Visibility ( mi km ) Precip ( " mm )
12:53 am 00:53 Clear 53 11.7 49 9.4 86 86 N N/A 30.18 1022 8 13 N/A
1:53 am 01:53 Clear 54 12.2 50 10 87 87 E 3 6 30.19 1022 10 16 N/A
2:53 am 02:53 Clear 53 11.7 50 10 89 89 E 3 6 30.19 1022 8 13 N/A
3:53 am 03:53 Mostly Cloudy 55 12.8 51 10.6 87 87 N N/A 30.19 1022 10 16 N/A
4:53 am 04:53 Mostly Clear 54 12.2 50 10 87 87 E 3 6 30.20 1023 10 16 N/A
5:53 am 05:53 Mostly Clear 54 12.2 49 9.4 83 83 E 5 7 30.21 1023 10 16 N/A
6:53 am 06:53 Mostly Cloudy 54 12.2 50 10 87 87 E 5 7 30.22 1023 10 16 N/A
7:53 am 07:53 Partly Cloudy 56 13.3 51 10.6 84 84 N N/A 30.24 1024 10 16 N/A
8:53 am 08:53 Sunny 61 16.1 54 12.2 78 78 ESE 3 6 30.25 1024 10 16 N/A
9:53 am 09:53 Mostly Sunny 66 18.9 56 13.3 70 70 SSW 3 6 30.26 1025 10 16 N/A
10:53 am 10:53 Mostly Sunny 73 22.8 60 15.6 64 64 SSW 5 7 30.24 1024 10 16 N/A
11:53 am 11:53 Sunny 77 25 62 16.7 60 60 S 6 9 30.21 1023 10 16 N/A
12:53 pm 12:53 Mostly Cloudy 78 25.6 61 16.1 56 56 VRB 5 7 30.19 1022 10 16 N/A
1:53 pm 13:53 Mostly Sunny 79 26.1 58 14.4 49 49 SW 7 11 30.16 1021 10 16 N/A
2:53 pm 14:53 Mostly Cloudy 80 26.7 57 13.9 45 45 SSW 9 15 30.14 1021 10 16 N/A
3:53 pm 15:53 Partly Cloudy 81 27.2 57 13.9 44 44 S 10 17 30.13 1020 10 16 N/A
4:53 pm 16:53 Mostly Sunny 78 25.6 59 15 52 52 S 9 15 30.12 1020 10 16 N/A
5:53 pm 17:53 Mostly Cloudy 75 23.9 60 15.6 60 60 SSE 6 9 30.12 1020 10 16 N/A
6:53 pm 18:53 Cloudy 71 21.7 61 16.1 71 71 SE 6 9 30.12 1020 10 16 N/A
7:53 pm 19:53 Cloudy 72 22.2 61 16.1 68 68 SE 6 9 30.13 1020 10 16 N/A
8:53 pm 20:53 Cloudy 72 22.2 61 16.1 68 68 N N/A 30.13 1020 10 16 N/A
9:53 pm 21:53 Cloudy 71 21.7 62 16.7 73 73 SSE 3 6 30.13 1020 10 16 0.00 0.00
10:53 pm 22:53 Partly Cloudy 68 20 62 16.7 81 81 ESE 3 6 30.13 1020 10 16 N/A
11:53 pm 23:53 Mostly Clear 68 20 61 16.1 78 78 SE 5 7 30.11 1020 10 16 N/A

Powered by AerisWeather